DW4993 Weather Reports


Display with metric or nautical units.
time (UTC)temp
F
wind
direction
speed
MPH
gust
MPH
rain 1hr
in
rain 24hr
in
rain mn
in
humidity
%
barometer
mb
20260906112307 49 176 0.0 1.0 0.00 0.16 0.00 95 1028.2
20260906111806 49 177 0.0 1.0 0.00 0.16 0.00 95 1028.5
20260906111305 49 177 1.0 1.0 0.00 0.16 0.00 95 1028.6
20260906110805 49 178 1.0 1.0 0.00 0.16 0.00 95 1028.5
20260906110306 49 177 0.0 2.0 0.00 0.16 0.00 95 1028.5
20260906105805 49 117 0.0 1.0 0.00 0.16 0.00 95 1028.5
20260906105306 49 113 0.0 1.0 0.00 0.16 0.00 95 1028.7
20260906102805 49 59 0.0 1.0 0.00 0.16 0.00 95 1028.2
20260906101805 49 59 0.0 0.0 0.00 0.16 0.00 95 1028.2
20260906100805 49 58 0.0 2.0 0.00 0.16 0.00 94 1028.6
20260906100306 49 43 0.0 1.0 0.00 0.16 0.00 94 1028.1
20260906095805 49 354 0.0 2.0 0.00 0.16 0.00 94 1028.1
20260906094805 49 85 0.0 1.0 0.00 0.16 0.00 94 1028.5
20260906094306 49 89 1.0 2.0 0.00 0.16 0.00 94 1028.4
20260906093805 49 61 1.0 2.0 0.00 0.16 0.00 94 1028.6
20260906093305 49 55 1.0 3.0 0.00 0.16 0.00 94 1028.6
20260906092805 49 50 1.0 1.0 0.00 0.16 0.00 95 1028.7
20260906092306 49 50 0.0 2.0 0.00 0.16 0.00 95 1028.9
20260906091306 49 48 0.0 0.0 0.00 0.16 0.00 95 1028.7
20260906090806 49 49 0.0 1.0 0.00 0.16 0.00 95 1028.8
20260906090305 49 9 0.0 1.0 0.00 0.16 0.00 95 1028.8
20260906085805 49 247 0.0 0.0 0.00 0.16 0.00 95 1028.7
20260906085307 49 247 0.0 0.0 0.00 0.16 0.00 95 1028.8
20260906084806 49 246 0.0 0.0 0.00 0.16 0.00 95 1029.3
20260906084305 49 246 0.0 0.0 0.00 0.16 0.00 95 1029.3
20260906083804 49 246 0.0 0.0 0.00 0.16 0.00 95 1029.3
20260906083305 49 246 0.0 0.0 0.00 0.16 0.00 95 1029.4
20260906082806 49 246 0.0 0.0 0.00 0.16 0.00 94 1029.3
20260906082306 49 246 0.0 0.0 0.00 0.16 0.00 94 1029.5
20260906081805 49 246 0.0 0.0 0.00 0.16 0.00 94 1029.6
20260906081305 49 246 0.0 0.0 0.00 0.16 0.00 94 1029.7
20260906080806 49 246 0.0 1.0 0.00 0.16 0.00 94 1029.7
20260906080305 49 246 0.0 1.0 0.00 0.16 0.00 94 1029.6
20260906075805 49 343 0.0 0.0 0.00 0.16 0.00 94 1029.5
20260906075306 49 343 0.0 0.0 0.00 0.16 0.00 94 1029.5
20260906074805 49 343 0.0 0.0 0.00 0.16 0.00 94 1029.5
20260906074305 49 343 0.0 0.0 0.00 0.16 0.00 94 1029.4
20260906073804 49 343 0.0 0.0 0.00 0.16 0.00 94 1029.5
20260906073305 49 343 0.0 1.0 0.00 0.16 0.00 94 1029.5
20260906072306 49 343 0.0 0.0 0.00 0.16 0.00 94 1029.8
20260906071806 49 343 0.0 1.0 0.00 0.16 0.00 94 1029.6
20260906071305 49 343 0.0 0.0 0.00 0.16 0.00 94 1029.8
20260906070806 49 343 0.0 0.0 0.00 0.16 0.00 94 1029.9
20260906065805 49 343 0.0 0.0 0.00 0.16 0.00 94 1030.1
20260906065306 49 343 0.0 0.0 0.00 0.16 0.00 94 1030.0
20260906064806 49 343 0.0 0.0 0.00 0.16 0.00 94 1030.0
20260906064305 49 343 0.0 0.0 0.00 0.16 0.00 94 1029.9
20260906063805 49 343 0.0 0.0 0.00 0.16 0.00 94 1029.7
20260906063305 49 342 0.0 1.0 0.01 0.16 0.00 94 1029.9
20260906062806 49 343 0.0 0.0 0.01 0.16 0.00 94 1029.8
20260906062306 49 343 0.0 1.0 0.01 0.16 0.00 94 1029.7
20260906061805 49 343 0.0 1.0 0.01 0.16 0.00 94 1029.7
20260906060819 49 343 0.0 1.0 0.01 0.16 0.00 94 1030.0
20260906060306 49 345 0.0 1.0 0.01 0.16 0.00 94 1029.7
20260906055805 49 277 0.0 1.0 0.01 0.16 0.16 94 1029.8
20260906054805 49 277 0.0 1.0 0.01 0.16 0.16 94 1029.9
20260906054306 49 277 0.0 1.0 0.01 0.16 0.16 94 1030.0
20260906053805 49 276 0.0 1.0 0.01 0.16 0.16 94 1030.1
20260906053305 49 276 0.0 1.0 0.00 0.15 0.15 94 1030.0
20260906052804 49 277 0.0 1.0 0.00 0.15 0.15 94 1029.9
20260906051805 49 277 0.0 1.0 0.00 0.15 0.15 93 1030.0
20260906051305 49 277 1.0 2.0 0.00 0.15 0.15 93 1029.9
20260906050806 49 249 1.0 3.0 0.00 0.15 0.15 93 1030.0
20260906045805 50 264 0.0 1.0 0.00 0.15 0.15 93 1030.0
20260906045306 50 262 1.0 2.0 0.00 0.15 0.15 93 1030.0
20260906044805 50 258 0.0 1.0 0.00 0.15 0.15 93 1030.1
20260906044305 50 256 0.0 1.0 0.00 0.15 0.15 93 1030.1
20260906043805 50 256 0.0 1.0 0.00 0.15 0.15 93 1030.1
20260906043305 50 256 0.0 0.0 0.00 0.15 0.15 93 1030.1
20260906042806 50 256 0.0 1.0 0.00 0.15 0.15 93 1030.2
20260906042306 50 256 0.0 1.0 0.00 0.15 0.15 93 1030.1
20260906041805 50 14 0.0 1.0 0.00 0.15 0.15 93 1030.1
20260906040805 50 15 0.0 1.0 0.00 0.15 0.15 93 1030.0
20260906035805 49 15 0.0 1.0 0.00 0.15 0.15 93 1029.9
20260906035306 50 15 1.0 2.0 0.00 0.15 0.15 93 1029.9
20260906034805 50 10 0.0 1.0 0.00 0.15 0.15 93 1029.8
20260906034305 49 11 0.0 2.0 0.00 0.15 0.15 93 1029.9
20260906033805 49 12 0.0 1.0 0.00 0.15 0.15 93 1029.9
20260906033305 49 12 0.0 2.0 0.00 0.15 0.15 93 1029.6
20260906032806 49 35 0.0 1.0 0.00 0.15 0.15 93 1029.5
20260906031805 49 17 0.0 3.0 0.00 0.15 0.15 93 1029.6
20260906030806 49 358 1.0 2.0 0.00 0.15 0.15 94 1029.6
20260906030305 49 348 1.0 2.0 0.00 0.15 0.15 94 1029.6
20260906025306 49 8 1.0 5.0 0.00 0.15 0.15 93 1029.6
20260906024805 49 346 0.0 2.0 0.01 0.15 0.15 93 1029.6
20260906024305 49 8 0.0 2.0 0.01 0.15 0.15 93 1029.6
20260906023805 49 26 1.0 5.0 0.01 0.15 0.15 93 1029.6
20260906023306 49 347 1.0 5.0 0.01 0.15 0.15 94 1029.5
20260906022805 49 8 1.0 3.0 0.02 0.15 0.15 94 1029.6
20260906022307 49 344 2.0 3.0 0.02 0.15 0.15 94 1029.4
20260906021805 49 353 2.0 5.0 0.02 0.15 0.15 94 1029.4
20260906021305 49 1 0.0 3.0 0.02 0.15 0.15 94 1029.6
20260906020805 49 356 1.0 3.0 0.03 0.15 0.15 94 1029.7
20260906020305 49 358 1.0 2.0 0.03 0.15 0.15 94 1029.7
20260906015805 49 2 1.0 2.0 0.03 0.15 0.15 94 1029.8
20260906015306 49 343 1.0 2.0 0.03 0.15 0.15 94 1029.6
20260906014305 49 324 1.0 2.0 0.02 0.14 0.14 93 1029.7
20260906013804 49 266 1.0 2.0 0.02 0.14 0.14 93 1029.6
20260906013306 49 271 0.0 2.0 0.02 0.14 0.14 93 1029.5
20260906012805 50 271 0.0 1.0 0.01 0.13 0.13 93 1029.5
20260906011805 50 247 0.0 1.0 0.02 0.13 0.13 93 1029.6
20260906011306 50 251 1.0 2.0 0.02 0.13 0.13 93 1029.6
20260906010805 50 343 1.0 5.0 0.02 0.12 0.12 93 1029.3
20260906010305 50 342 1.0 5.0 0.03 0.12 0.12 93 1029.3
20260906005805 50 0 0.0 2.0 0.03 0.12 0.12 93 1029.4
20260906005306 49 357 1.0 3.0 0.04 0.12 0.12 93 1029.5
20260906004805 50 359 1.0 2.0 0.04 0.12 0.12 93 1029.3
20260906004305 50 351 0.0 2.0 0.05 0.12 0.12 93 1029.3
20260906003806 49 8 1.0 3.0 0.05 0.12 0.12 93 1029.3
20260906003305 49 343 2.0 3.0 0.05 0.12 0.12 93 1029.4
20260906002805 49 348 1.0 2.0 0.06 0.12 0.12 93 1029.3
20260906002306 49 5 0.0 2.0 0.06 0.12 0.12 93 1029.5
20260906001306 49 21 0.0 2.0 0.05 0.11 0.11 93 1029.4
20260906000805 50 336 1.0 2.0 0.04 0.10 0.10 93 1029.5
20260906000304 49 271 1.0 1.0 0.03 0.09 0.09 93 1029.3
20260905234805 49 335 1.0 3.0 0.02 0.08 0.08 93 1029.5
20260905234305 49 340 1.0 3.0 0.01 0.07 0.07 93 1029.6
20260905233805 49 9 0.0 1.0 0.01 0.07 0.07 93 1029.5
20260905233305 49 5 0.0 2.0 0.01 0.07 0.07 93 1029.5
20260905232805 49 3 1.0 2.0 0.00 0.06 0.06 92 1029.3
20260905232306 49 346 1.0 3.0 0.00 0.06 0.06 92 1029.4
20260905231805 49 331 0.0 3.0 0.00 0.06 0.06 92 1029.3
20260905231304 49 34 0.0 3.0 0.00 0.06 0.06 92 1029.2
20260905230804 49 7 2.0 3.0 0.00 0.06 0.06 91 1029.3
20260905230305 49 16 1.0 3.0 0.00 0.06 0.06 91 1029.1
20260905225806 49 44 0.0 3.0 0.00 0.06 0.06 91 1029.3
20260905224804 49 42 0.0 2.0 0.00 0.06 0.06 91 1029.2
20260905224306 49 8 1.0 5.0 0.00 0.06 0.06 90 1029.4
20260905223305 49 8 1.0 6.0 0.00 0.06 0.06 90 1029.1
20260905222804 49 15 2.0 5.0 0.00 0.06 0.06 90 1029.3
20260905222306 49 345 2.0 5.0 0.00 0.06 0.06 89 1029.2
20260905220805 49 24 1.0 3.0 0.01 0.06 0.06 90 1029.4
20260905220306 50 14 1.0 5.0 0.01 0.06 0.06 90 1029.5
20260905215805 50 17 1.0 2.0 0.02 0.06 0.06 91 1029.5
20260905215306 49 4 1.0 3.0 0.02 0.06 0.06 90 1029.4
20260905214806 49 20 1.0 3.0 0.02 0.06 0.06 90 1029.4
20260905214305 50 26 0.0 3.0 0.02 0.06 0.06 90 1029.4
20260905213805 49 5 1.0 3.0 0.02 0.06 0.06 90 1029.3
20260905213305 49 11 1.0 3.0 0.02 0.06 0.06 91 1029.3
20260905212806 49 355 1.0 3.0 0.02 0.06 0.06 91 1029.4
20260905212306 49 354 2.0 3.0 0.03 0.06 0.06 91 1029.5
20260905210806 49 21 1.0 5.0 0.03 0.05 0.05 91 1029.3
20260905205805 49 38 1.0 6.0 0.03 0.04 0.04 90 1029.6
20260905205306 49 21 3.0 8.0 0.04 0.04 0.04 89 1029.3
20260905204804 49 344 1.0 3.0 0.04 0.04 0.04 91 1029.4
20260905204304 49 13 1.0 5.0 0.04 0.04 0.04 91 1029.3
20260905203305 49 48 1.0 6.0 0.04 0.04 0.04 90 1029.3
20260905202805 49 10 3.0 6.0 0.04 0.04 0.04 90 1029.2
20260905202306 49 351 3.0 8.0 0.03 0.03 0.03 90 1029.4
20260905201805 49 0 2.0 5.0 0.03 0.03 0.03 91 1029.7
20260905201305 49 350 3.0 6.0 0.02 0.02 0.02 90 1029.5
20260905200805 49 33 1.0 5.0 0.02 0.02 0.02 90 1029.7
20260905200305 49 19 1.0 3.0 0.02 0.02 0.02 90 1029.8
20260905195806 49 0 1.0 3.0 0.01 0.01 0.01 89 1029.9
20260905195306 49 351 1.0 3.0 0.00 0.00 0.00 89 1029.7
20260905194805 49 340 2.0 6.0 0.00 0.00 0.00 88 1029.7
20260905194305 49 350 1.0 5.0 0.00 0.00 0.00 88 1029.7
20260905193806 49 335 2.0 5.0 0.00 0.00 0.00 88 1029.7
20260905193305 49 351 2.0 7.0 0.00 0.00 0.00 87 1029.3
20260905192805 49 17 2.0 5.0 0.00 0.00 0.00 88 1029.4
20260905192306 49 349 3.0 7.0 0.00 0.00 0.00 88 1029.1
20260905191806 49 36 2.0 6.0 0.00 0.00 0.00 88 1028.9
20260905191305 49 12 2.0 7.0 0.00 0.00 0.00 88 1029.1
20260905190805 49 352 2.0 8.0 0.00 0.00 0.00 88 1029.0
20260905190305 49 16 1.0 5.0 0.00 0.00 0.00 88 1028.9
20260905185306 49 0 1.0 5.0 0.00 0.00 0.00 88 1029.1
20260905184305 49 9 1.0 7.0 0.00 0.00 0.00 88 1029.3
20260905183805 49 358 4.0 7.0 0.00 0.00 0.00 86 1029.1
20260905183305 49 10 1.0 5.0 0.00 0.00 0.00 86 1029.3
20260905182804 49 4 1.0 5.0 0.00 0.00 0.00 87 1029.2
20260905182306 49 38 1.0 5.0 0.00 0.00 0.00 87 1029.1
20260905181806 49 15 2.0 3.0 0.00 0.00 0.00 89 1029.3
20260905181304 49 14 1.0 3.0 0.00 0.00 0.00 88 1029.2
20260905180805 49 357 1.0 5.0 0.00 0.00 0.00 87 1029.5
20260905175805 49 32 2.0 6.0 0.00 0.00 0.00 87 1029.4
20260905174804 49 13 2.0 5.0 0.00 0.00 0.00 86 1029.7
20260905173805 48 29 2.0 6.0 0.00 0.00 0.00 84 1029.7
20260905173305 48 6 2.0 6.0 0.00 0.00 0.00 84 1029.8
20260905172805 48 351 3.0 7.0 0.00 0.00 0.00 84 1029.5
20260905171805 48 0 3.0 7.0 0.00 0.00 0.00 84 1029.4
20260905171305 48 358 2.0 12.0 0.00 0.00 0.00 84 1029.4
20260905170805 49 349 5.0 12.0 0.00 0.00 0.00 83 1029.2
20260905170306 49 357 3.0 8.0 0.00 0.00 0.00 83 1029.0
20260905164805 48 40 3.0 9.0 0.00 0.00 0.00 83 1029.1
20260905164306 48 52 2.0 8.0 0.00 0.00 0.00 83 1029.1
20260905163804 48 24 3.0 10.0 0.00 0.00 0.00 83 1029.0
20260905163304 48 36 2.0 9.0 0.00 0.00 0.00 84 1028.8
20260905162805 48 54 2.0 6.0 0.00 0.00 0.00 84 1028.8
20260905162306 48 50 1.0 8.0 0.00 0.00 0.00 84 1029.2
20260905161305 47 42 2.0 7.0 0.00 0.00 0.00 85 1028.9
20260905160805 47 343 3.0 8.0 0.00 0.00 0.00 85 1029.0
20260905160304 47 12 4.0 10.0 0.00 0.00 0.00 85 1029.0
20260905155805 47 356 2.0 6.0 0.00 0.00 0.00 85 1029.0
20260905155306 47 355 2.0 7.0 0.00 0.00 0.00 85 1028.7
20260905154806 47 27 2.0 8.0 0.00 0.00 0.00 85 1028.7
20260905154304 47 350 2.0 6.0 0.00 0.00 0.00 85 1028.7
20260905153805 47 14 3.0 7.0 0.00 0.00 0.00 85 1028.6
20260905153305 47 357 2.0 9.0 0.00 0.00 0.00 85 1028.5
20260905152806 47 32 3.0 7.0 0.00 0.00 0.00 85 1028.3
20260905152306 47 336 2.0 10.0 0.00 0.00 0.00 85 1028.5
20260905151805 47 32 3.0 10.0 0.00 0.00 0.00 85 1028.6
20260905150806 47 13 2.0 9.0 0.00 0.00 0.00 85 1028.2
20260905150304 47 20 1.0 8.0 0.00 0.00 0.00 85 1028.2
20260905145805 47 35 5.0 12.0 0.00 0.00 0.00 85 1028.3
20260905145306 47 3 3.0 9.0 0.00 0.00 0.00 85 1028.1
20260905144305 47 20 3.0 10.0 0.00 0.00 0.00 85 1028.0
20260905143805 47 14 3.0 10.0 0.00 0.00 0.00 85 1028.0
20260905142806 47 47 3.0 8.0 0.00 0.00 0.00 85 1028.2
20260905141805 47 26 4.0 7.0 0.00 0.00 0.00 85 1028.1
20260905141305 47 337 3.0 9.0 0.00 0.00 0.00 86 1027.9
20260905140805 47 358 2.0 9.0 0.00 0.00 0.00 86 1027.5
20260905140305 46 347 2.0 8.0 0.00 0.00 0.00 86 1027.3
20260905135805 46 14 2.0 8.0 0.00 0.00 0.00 86 1027.5
20260905135306 46 7 3.0 8.0 0.00 0.00 0.00 86 1026.9
20260905134806 46 21 2.0 8.0 0.00 0.00 0.00 86 1027.0
20260905134305 46 44 3.0 9.0 0.00 0.00 0.00 86 1027.0
20260905133304 47 7 2.0 9.0 0.00 0.00 0.00 86 1026.9
20260905132806 46 27 2.0 8.0 0.00 0.00 0.00 86 1026.9
20260905131805 46 34 3.0 10.0 0.00 0.00 0.00 85 1026.9
20260905131306 47 49 2.0 9.0 0.00 0.00 0.00 85 1027.0
20260905130805 47 31 3.0 8.0 0.00 0.00 0.00 85 1027.1
20260905130304 47 38 1.0 6.0 0.00 0.00 0.00 85 1026.9
20260905125805 47 345 2.0 7.0 0.00 0.00 0.00 85 1027.0
20260905125306 47 17 3.0 7.0 0.00 0.00 0.00 85 1026.7
20260905124804 47 335 3.0 7.0 0.00 0.00 0.00 85 1026.8
20260905124304 47 13 3.0 8.0 0.00 0.00 0.00 85 1026.5
20260905123805 47 40 3.0 10.0 0.00 0.00 0.00 85 1026.8
20260905123305 47 358 2.0 5.0 0.00 0.00 0.00 85 1026.6
20260905122805 47 353 1.0 8.0 0.00 0.00 0.00 85 1026.5
20260905122306 47 38 1.0 10.0 0.00 0.00 0.00 85 1026.1
20260905121804 47 18 1.0 9.0 0.00 0.00 0.00 85 1026.1
20260905121306 47 11 1.0 6.0 0.00 0.00 0.00 85 1026.3
20260905120804 47 17 2.0 7.0 0.00 0.00 0.00 85 1026.3
20260905120305 47 344 2.0 7.0 0.00 0.00 0.00 85 1026.4
20260905115804 47 48 3.0 7.0 0.00 0.00 0.00 85 1026.6
20260905115306 47 9 3.0 7.0 0.00 0.00 0.00 85 1026.5
20260905114805 47 12 2.0 7.0 0.00 0.00 0.00 85 1026.3
20260905114305 47 349 3.0 7.0 0.00 0.00 0.00 85 1026.3
20260905113805 47 21 3.0 10.0 0.00 0.00 0.00 85 1026.5
20260905113306 47 345 4.0 12.0 0.00 0.00 0.00 85 1026.4